Location: Pensacola
(30.4142°N, 87.2155°W)
Time: 22:04:16
(UTC-05:00)

SEEDS - Visible Passes

Search period start: 24 July 2024 00:00
Search period end: 03 August 2024 00:00
Orbit: 548 x 556 km, 97.7° (Epoch: 24 July)

Date Brightness Start Highest point End Pass type
(mag) Time Alt. Az. Time Alt. Az. Time Alt. Az.
24 Jul ? 04:49:09 10° N 04:53:05 72° WNW 04:56:11 16° SSW visible
25 Jul ? 04:45:32 10° N 04:49:28 81° WNW 04:52:29 17° SSW visible
26 Jul ? 04:41:53 10° NNE 04:45:50 89° E 04:48:45 17° SSW visible
27 Jul ? 04:38:13 10° NNE 04:42:10 79° ESE 04:44:59 18° S visible
28 Jul ? 04:34:33 10° NNE 04:38:28 70° E 04:41:13 19° S visible
29 Jul ? 04:30:51 10° NNE 04:34:45 61° E 04:37:25 19° S visible
30 Jul ? 04:27:09 10° NNE 04:31:01 54° E 04:33:35 20° S visible
31 Jul ? 04:23:25 10° NNE 04:27:14 47° E 04:29:43 20° SSE visible
01 Aug ? 04:19:41 10° NNE 04:23:27 42° E 04:25:50 19° SSE visible
02 Aug ? 04:15:57 10° NNE 04:19:36 37° E 04:21:56 19° SSE visible
